When you browse on this site, cookies collect data to enhance your experience and personalize the content and advertising you see.
Visit our Privacy Policy to learn more. By continuing to use the site, you agree to this use of cookies and data.
  • In Österreich
  • Länderverzeichnis
  • Für 7 Tage
  • Wassertemperatur
  • Satellitenkarten
  • Wetterkarte
  • News
  • Widgets
  • user-avatar
    Anmelden

    Stündliche Wetter Bardy

    Heute, 21 Januar, Montag

    Zeit Temperatur Niederschläge Wind Luftdruck Luftfeuchtigkeit
    00:00 -4°C° 0 mm 4 m/S 762 mmHg 92%
    01:00 -4°C° 0 mm 4 m/S 762 mmHg 92%
    02:00 -4°C° 0 mm 4 m/S 762 mmHg 91%
    03:00 -5°C° 0 mm 4 m/S 762 mmHg 90%
    04:00 -6°C° 0 mm 5 m/S 762 mmHg 89%
    05:00 -5°C° 0 mm 4 m/S 762 mmHg 88%
    06:00 -5°C° 0 mm 4 m/S 762 mmHg 87%
    07:00 -7°C° 0 mm 4 m/S 762 mmHg 87%
    08:00 -5°C° 0 mm 4 m/S 762 mmHg 84%
    09:00 -5°C° 0 mm 4 m/S 762 mmHg 82%
    10:00 -6°C° 0 mm 5 m/S 761 mmHg 79%
    11:00 -5°C° 0 mm 5 m/S 761 mmHg 74%
    12:00 -5°C° 0 mm 5 m/S 761 mmHg 70%
    13:00 -4°C° 0 mm 5 m/S 761 mmHg 66%
    14:00 -4°C° 0 mm 5 m/S 760 mmHg 66%
    15:00 -4°C° 0 mm 5 m/S 760 mmHg 65%
    16:00 -5°C° 0 mm 5 m/S 760 mmHg 65%
    17:00 -5°C° 0.1 mm 6 m/S 759 mmHg 68%
    18:00 -5°C° 0.1 mm 6 m/S 759 mmHg 70%
    19:00 -5°C° 0.1 mm 6 m/S 759 mmHg 72%
    20:00 -5°C° 0 mm 5 m/S 758 mmHg 74%
    21:00 -5°C° 0 mm 5 m/S 758 mmHg 75%
    22:00 -5°C° 0 mm 5 m/S 758 mmHg 77%
    23:00 -5°C° 0.3 mm 5 m/S 758 mmHg 79%

    Morgen, 22 Januar, Dienstag

    Zeit Temperatur Niederschläge Wind Luftdruck Luftfeuchtigkeit
    00:00 -5°C° 0.3 mm 5 m/S 758 mmHg 81%
    01:00 -5°C° 0.3 mm 5 m/S 757 mmHg 83%
    02:00 -5°C° 0.4 mm 5 m/S 757 mmHg 85%
    03:00 -5°C° 0.4 mm 5 m/S 757 mmHg 86%
    04:00 -5°C° 0.4 mm 5 m/S 757 mmHg 87%
    05:00 -6°C° 0 mm 5 m/S 757 mmHg 87%
    06:00 -5°C° 0 mm 4 m/S 756 mmHg 88%
    07:00 -5°C° 0 mm 4 m/S 756 mmHg 88%
    08:00 -5°C° 0 mm 4 m/S 756 mmHg 87%
    09:00 -4°C° 0 mm 4 m/S 756 mmHg 85%
    10:00 -4°C° 0 mm 4 m/S 756 mmHg 84%
    11:00 -3°C° 0 mm 4 m/S 756 mmHg 82%
    12:00 -3°C° 0 mm 4 m/S 755 mmHg 80%
    13:00 -2°C° 0 mm 4 m/S 755 mmHg 78%
    14:00 -3°C° 0 mm 4 m/S 755 mmHg 79%
    15:00 -2°C° 0 mm 3 m/S 754 mmHg 79%
    16:00 -4°C° 0 mm 3 m/S 754 mmHg 79%
    17:00 -4°C° 0 mm 4 m/S 754 mmHg 79%
    18:00 -4°C° 0 mm 4 m/S 753 mmHg 78%
    19:00 -5°C° 0 mm 4 m/S 753 mmHg 78%
    20:00 -5°C° 0 mm 4 m/S 753 mmHg 78%
    21:00 -5°C° 0 mm 4 m/S 753 mmHg 78%
    22:00 -6°C° 0 mm 5 m/S 753 mmHg 78%
    23:00 -5°C° 0 mm 4 m/S 753 mmHg 77%

    übermorgen, 23 Januar, Mittwoch

    Zeit Temperatur Niederschläge Wind Luftdruck Luftfeuchtigkeit
    00:00 -5°C° 0 mm 4 m/S 753 mmHg 75%
    01:00 -7°C° 0 mm 4 m/S 752 mmHg 74%
    02:00 -7°C° 0 mm 4 m/S 752 mmHg 74%
    03:00 -7°C° 0 mm 4 m/S 752 mmHg 75%
    04:00 -7°C° 0 mm 4 m/S 752 mmHg 75%
    05:00 -7°C° 0 mm 4 m/S 752 mmHg 77%
    06:00 -7°C° 0 mm 4 m/S 752 mmHg 78%
    07:00 -7°C° 0 mm 4 m/S 752 mmHg 79%
    08:00 -7°C° 0 mm 5 m/S 752 mmHg 78%
    09:00 -7°C° 0 mm 5 m/S 752 mmHg 77%
    10:00 -6°C° 0 mm 5 m/S 753 mmHg 75%
    11:00 -6°C° 0 mm 5 m/S 753 mmHg 73%
    12:00 -4°C° 0 mm 4 m/S 753 mmHg 70%
    13:00 -3°C° 0 mm 4 m/S 753 mmHg 67%
    14:00 -4°C° 0 mm 4 m/S 753 mmHg 69%
    15:00 -4°C° 0 mm 4 m/S 753 mmHg 70%
    16:00 -5°C° 0 mm 3 m/S 753 mmHg 72%
    17:00 -5°C° 0 mm 3 m/S 754 mmHg 73%
    18:00 -6°C° 0 mm 3 m/S 754 mmHg 75%
    19:00 -6°C° 0 mm 3 m/S 754 mmHg 76%
    20:00 -6°C° 0 mm 3 m/S 755 mmHg 77%
    21:00 -7°C° 0 mm 3 m/S 755 mmHg 77%
    22:00 -7°C° 0 mm 3 m/S 755 mmHg 78%
    23:00 -7°C° 0 mm 3 m/S 756 mmHg 79%

    24 Januar, Donnerstag

    Zeit Temperatur Niederschläge Wind Luftdruck Luftfeuchtigkeit
    00:00 -7°C° 0 mm 3 m/S 756 mmHg 80%
    01:00 -6°C° 0 mm 2 m/S 756 mmHg 82%
    02:00 -7°C° 0 mm 2 m/S 756 mmHg 83%
    03:00 -7°C° 0 mm 2 m/S 756 mmHg 84%
    04:00 -7°C° 0 mm 2 m/S 756 mmHg 84%
    05:00 -7°C° 0 mm 2 m/S 756 mmHg 85%
    06:00 -7°C° 0 mm 2 m/S 757 mmHg 86%
    07:00 -7°C° 0 mm 2 m/S 757 mmHg 86%
    08:00 -7°C° 0 mm 2 m/S 757 mmHg 84%
    09:00 -6°C° 0 mm 2 m/S 757 mmHg 82%
    10:00 -7°C° 0 mm 3 m/S 758 mmHg 80%
    11:00 -6°C° 0 mm 3 m/S 758 mmHg 78%
    12:00 -6°C° 0 mm 3 m/S 758 mmHg 75%
    13:00 -5°C° 0 mm 3 m/S 758 mmHg 72%
    14:00 -4°C° 0 mm 2 m/S 757 mmHg 74%
    15:00 -4°C° 0 mm 2 m/S 757 mmHg 76%
    16:00 -3°C° 0 mm 1 m/S 757 mmHg 77%
    17:00 -5°C° 0 mm 2 m/S 758 mmHg 78%
    18:00 -5°C° 0 mm 2 m/S 758 mmHg 79%
    19:00 -6°C° 0 mm 2 m/S 758 mmHg 81%
    20:00 -6°C° 0 mm 2 m/S 758 mmHg 81%
    21:00 -6°C° 0 mm 2 m/S 758 mmHg 82%
    22:00 -6°C° 0 mm 2 m/S 758 mmHg 83%
    23:00 -6°C° 0 mm 2 m/S 758 mmHg 83%

    25 Januar, Freitag

    Zeit Temperatur Niederschläge Wind Luftdruck Luftfeuchtigkeit
    00:00 -6°C° 0 mm 2 m/S 758 mmHg 83%
    01:00 -6°C° 0 mm 2 m/S 758 mmHg 84%
    02:00 -6°C° 0 mm 2 m/S 758 mmHg 83%
    03:00 -6°C° 0 mm 2 m/S 758 mmHg 83%
    04:00 -6°C° 0 mm 2 m/S 758 mmHg 83%
    05:00 -6°C° 0 mm 2 m/S 758 mmHg 84%
    06:00 -6°C° 0 mm 2 m/S 758 mmHg 84%
    07:00 -4°C° 0 mm 1 m/S 758 mmHg 85%
    08:00 -6°C° 0 mm 2 m/S 758 mmHg 83%
    09:00 -6°C° 0 mm 2 m/S 759 mmHg 82%
    10:00 -5°C° 0 mm 2 m/S 759 mmHg 80%
    11:00 -5°C° 0 mm 2 m/S 759 mmHg 76%
    12:00 -4°C° 0 mm 2 m/S 759 mmHg 73%
    13:00 -1°C° 0 mm 1 m/S 759 mmHg 69%
    14:00 -2°C° 0 mm 1 m/S 759 mmHg 71%
    15:00 -2°C° 0 mm 1 m/S 758 mmHg 73%
    16:00 -2°C° 0 mm 1 m/S 758 mmHg 75%
    17:00 -3°C° 0 mm 1 m/S 759 mmHg 77%
    18:00 -5°C° 0 mm 2 m/S 759 mmHg 78%
    19:00 -6°C° 0 mm 3 m/S 759 mmHg 79%
    20:00 -6°C° 0 mm 3 m/S 758 mmHg 80%
    21:00 -7°C° 0 mm 4 m/S 758 mmHg 81%
    22:00 -7°C° 0 mm 4 m/S 758 mmHg 82%
    23:00 -7°C° 0 mm 5 m/S 757 mmHg 81%

    26 Januar, Samstag

    Zeit Temperatur Niederschläge Wind Luftdruck Luftfeuchtigkeit
    00:00 -8°C° 0 mm 6 m/S 757 mmHg 81%
    01:00 -8°C° 0 mm 6 m/S 756 mmHg 80%
    02:00 -8°C° 0 mm 6 m/S 756 mmHg 79%
    03:00 -8°C° 0 mm 7 m/S 755 mmHg 77%
    04:00 -8°C° 0 mm 7 m/S 754 mmHg 75%
    05:00 -8°C° 0 mm 8 m/S 754 mmHg 73%
    06:00 -7°C° 0 mm 8 m/S 753 mmHg 71%
    07:00 -8°C° 0 mm 9 m/S 752 mmHg 68%
    08:00 -6°C° 0.1 mm 9 m/S 752 mmHg 71%
    09:00 -6°C° 0.1 mm 9 m/S 751 mmHg 73%
    10:00 -5°C° 0.1 mm 9 m/S 751 mmHg 76%
    11:00 -5°C° 0 mm 9 m/S 750 mmHg 78%
    12:00 -5°C° 0 mm 9 m/S 749 mmHg 79%
    13:00 -5°C° 0 mm 9 m/S 748 mmHg 81%
    14:00 -4°C° 0.1 mm 9 m/S 748 mmHg 83%
    15:00 -4°C° 0.1 mm 9 m/S 747 mmHg 85%
    16:00 -3°C° 0.1 mm 9 m/S 746 mmHg 87%
    17:00 -3°C° 0.4 mm 9 m/S 746 mmHg 88%
    18:00 -1°C° 0.4 mm 9 m/S 745 mmHg 89%
    19:00 -1°C° 0.4 mm 9 m/S 744 mmHg 90%
    20:00 -1°C° 0.9 mm 9 m/S 744 mmHg 91%
    21:00 0°C° 0.9 mm 8 m/S 743 mmHg 91%
    22:00 0°C° 0.9 mm 8 m/S 743 mmHg 92%
    23:00 0°C° 0.9 mm 8 m/S 743 mmHg 92%
    Mehr zeigen